Theta_e
347 355 362 362 361 362 361 361 361 361 364 364 365 366 366 366 367 367 366 365 366 366 366 366 366 364 364 363 363 364 364 363 364 362 359 359 358 360 362 359 357 350 358
351 356 364 363 363 363 362 361 361 362 363 364 366 364 365 365 366 366 366 364 366 366 364 363 363 363 362 362 361 362 362 364 364 363 360 358 359 359 360 359 358 352 358
352 357 359 364 362 362 360 359 359 358 359 361 363 364 363 363 365 366 365 364 364 366 364 363 363 361 362 362 360 359 359 361 362 361 359 353 347 358 360 359 359 356 356
352 352 357 363 363 360 362 361 360 359 359 358 361 362 361 363 365 364 364 363 366 366 364 364 363 362 360 361 360 359 358 359 359 359 350 348 349 359 360 359 359 359 358
348 351 356 364 363 362 361 361 361 361 359 360 359 360 362 361 363 363 364 363 363 362 363 362 360 359 359 360 360 362 359 362 360 349 345 344 347 355 359 358 354 357 359
352 356 362 364 361 362 361 361 361 360 358 359 359 360 360 361 362 362 363 363 363 362 362 362 361 360 359 359 361 363 361 360 356 350 350 350 344 355 359 359 355 355 358
353 357 358 365 363 362 361 361 361 359 358 361 360 360 361 361 362 363 362 362 362 362 362 362 362 359 359 358 359 360 364 359 349 351 351 350 348 356 355 358 357 354 355
351 355 356 363 364 362 362 360 360 360 359 361 362 361 363 362 362 364 361 361 363 362 362 362 361 360 358 356 358 362 362 360 348 344 347 349 356 355 355 355 356 357 354
352 353 355 356 358 361 362 361 361 360 361 361 361 361 363 361 361 363 362 362 363 362 361 361 361 359 358 355 356 360 364 359 344 343 346 349 359 357 355 354 355 355 356
350 351 353 354 354 354 355 362 361 361 361 361 360 360 362 360 361 362 364 364 362 361 361 361 360 358 357 357 358 358 364 355 347 350 352 354 358 356 358 355 350 355 354
349 351 352 352 351 352 353 357 360 361 361 360 360 359 360 350 351 355 361 363 361 361 360 360 359 357 356 357 360 361 360 346 348 350 352 358 357 354 356 356 350 350 353
343 348 350 351 351 352 355 353 352 356 353 352 351 350 350 349 348 354 358 361 360 360 360 359 359 359 359 351 350 359 352 349 350 351 355 360 359 356 353 350 350 350 349
345 347 350 349 351 350 353 353 352 351 351 351 351 349 349 347 350 350 351 351 350 357 352 357 357 356 355 353 353 350 345 348 347 347 355 358 359 357 355 351 352 352 350
344 345 348 352 344 342 345 349 350 351 349 349 347 352 345 348 345 345 348 348 348 351 344 348 343 345 347 351 348 337 341 341 344 350 356 361 359 360 356 353 353 352 350
345 348 348 344 343 340 335 344 347 347 348 348 350 351 349 348 344 346 346 348 346 347 345 344 350 345 344 344 344 339 341 340 342 347 348 359 360 359 355 353 354 353 354
345 348 351 342 342 340 335 344 342 347 348 349 348 353 352 347 347 347 348 347 349 351 351 343 345 346 346 343 341 344 342 344 342 343 347 351 360 359 358 355 355 354 354
347 349 349 346 344 339 341 348 344 346 349 350 350 354 351 349 349 345 347 350 351 349 345 344 345 352 349 345 342 342 344 344 345 342 345 348 354 361 359 359 359 359 356
343 343 346 352 349 349 347 345 341 344 344 343 354 351 354 354 354 349 351 349 347 347 344 348 343 340 345 346 340 342 343 346 344 345 347 346 348 348 358 362 362 362 359
343 342 342 348 348 350 347 346 340 341 346 346 354 354 352 352 354 351 351 353 349 350 348 343 345 342 343 341 341 341 342 343 344 348 343 347 347 349 349 357 361 362 361
343 341 345 345 349 347 351 349 347 347 348 349 350 353 353 355 355 348 353 349 352 346 344 343 343 351 346 339 344 340 340 344 344 343 344 347 346 350 350 351 353 356 362
344 340 348 347 351 347 349 349 349 348 349 347 346 355 354 355 353 347 347 350 348 347 346 342 347 346 346 345 341 341 338 337 338 343 342 345 344 349 351 352 352 354 355
342 343 348 351 350 346 350 351 351 346 351 351 353 353 355 354 354 351 349 349 352 347 347 347 349 346 346 341 337 340 330 333 338 339 338 342 341 345 347 349 351 352 352
342 345 349 350 350 352 350 347 345 345 349 349 350 352 354 354 354 355 354 352 348 351 347 348 347 345 340 341 340 340 331 329 331 335 335 339 339 344 346 350 351 353 353
342 347 351 350 349 352 353 347 338 342 342 345 349 353 353 355 355 352 354 352 352 348 348 350 353 350 348 343 344 342 341 341 334 328 338 341 344 343 344 348 350 352 353
343 345 352 351 349 350 353 350 347 339 336 342 346 350 352 354 355 354 353 353 351 347 347 347 351 350 351 349 345 346 340 345 344 337 335 340 343 345 346 346 352 352 357
342 346 350 351 350 353 351 350 346 333 332 340 344 348 349 350 351 354 354 352 351 351 348 351 351 351 350 351 353 348 346 339 338 331 338 338 337 339 344 346 344 348 356
Wind_Speed
7 7 12 13 14 14 14 12 12 15 14 14 14 15 16 15 15 15 15 16 15 16 17 17 17 16 17 17 17 18 19 20 20 21 21 20 18 16 17 18 17 13 16
13 10 14 15 16 15 14 14 13 14 14 15 14 16 14 15 15 15 15 16 15 16 18 17 16 16 16 16 16 17 16 17 21 21 22 20 19 18 18 17 17 13 17
14 11 11 14 15 14 13 13 12 13 13 13 14 15 15 14 15 15 15 16 16 16 17 16 14 15 14 15 15 16 16 14 18 21 21 9 9 17 17 16 16 16 16
15 10 9 14 13 13 13 13 12 13 13 13 12 14 14 14 14 15 16 16 15 15 16 16 14 14 12 13 12 13 10 10 5 16 10 8 11 15 15 16 14 15 16
15 11 11 15 13 13 13 14 13 12 13 13 14 12 14 13 13 14 17 16 15 15 15 15 12 12 11 11 10 17 16 12 20 13 10 7 6 11 14 16 14 14 15
15 12 13 15 14 14 13 14 13 12 13 12 13 13 13 12 14 14 15 15 14 14 14 14 11 10 9 8 9 10 15 11 18 10 11 10 6 13 14 13 15 13 12
15 12 11 14 14 14 13 13 13 13 13 11 13 14 13 14 13 15 15 14 13 13 14 12 11 9 7 5 8 6 14 20 11 10 9 6 6 12 13 13 14 13 14
16 12 10 14 14 14 15 13 13 13 13 12 14 14 15 14 14 14 14 13 13 14 14 12 11 7 5 2 3 10 11 19 13 10 8 5 9 12 12 11 11 12 12
16 13 9 8 11 12 14 14 13 14 12 13 14 14 14 15 14 14 14 12 15 14 12 10 9 7 5 1 3 9 11 18 10 7 10 4 9 11 11 10 9 9 11
15 14 11 8 7 6 6 12 13 13 13 13 13 13 14 14 15 14 11 11 13 12 10 9 7 5 4 4 3 4 10 14 10 9 5 4 9 8 8 10 9 9 8
12 12 11 9 8 7 6 8 9 11 12 13 12 13 10 5 6 8 9 10 11 10 8 6 4 1 2 5 5 1 7 6 7 5 3 9 9 9 8 8 7 6 6
13 14 12 8 9 10 8 6 5 6 3 5 5 4 3 3 5 7 7 8 8 8 6 4 3 4 4 3 3 2 2 6 6 5 3 10 8 8 7 6 5 4 4
13 8 12 10 6 6 5 3 2 2 3 3 6 5 4 5 4 3 2 2 1 5 1 4 4 3 5 5 4 3 6 6 4 4 6 10 8 7 6 5 4 3 3
11 9 6 11 9 3 4 2 1 3 3 3 4 6 5 4 4 4 3 5 3 2 2 2 2 4 7 8 5 6 8 5 3 3 5 10 8 9 7 5 4 2 2
15 10 7 14 6 2 3 2 4 2 1 5 4 6 4 3 4 4 4 3 3 1 2 4 3 3 5 6 6 7 9 6 5 3 2 10 8 8 8 6 5 5 5
14 14 11 15 9 7 2 3 3 2 3 1 4 4 6 4 5 4 4 4 3 3 4 3 3 2 4 2 5 5 6 7 6 6 3 4 9 9 8 8 8 7 7
13 15 11 18 11 8 6 8 5 2 3 4 4 5 6 4 4 5 3 4 4 3 4 5 3 3 3 2 4 4 4 4 6 7 5 4 5 10 10 10 10 9 9
15 13 12 13 18 16 9 3 1 3 1 4 1 4 6 5 5 5 3 4 4 2 3 1 3 2 4 4 3 4 4 4 4 6 6 5 5 5 9 13 12 11 12
13 11 7 13 9 10 12 6 4 4 2 4 2 3 5 3 5 5 1 1 4 2 3 2 1 2 2 1 3 4 4 4 5 4 8 9 8 6 4 10 13 12 13
10 9 8 8 8 8 10 6 3 3 4 4 4 3 4 2 5 3 2 2 3 3 1 1 2 2 2 1 3 2 3 5 5 4 4 3 7 7 7 6 5 6 14
9 8 8 9 7 5 3 5 5 4 3 2 2 5 5 4 4 3 3 1 3 3 2 1 1 2 3 0 3 3 2 3 3 4 3 5 5 8 6 5 4 4 5
10 8 9 8 8 5 3 2 3 4 3 3 3 4 5 5 6 5 3 3 4 2 1 2 2 3 2 1 3 2 2 5 4 3 2 3 5 3 4 6 5 5 5
12 9 10 8 8 5 6 5 3 4 1 3 2 3 4 6 5 5 5 5 4 2 1 2 1 3 1 3 1 4 3 2 1 3 3 3 2 2 4 6 5 6 5
13 12 10 8 7 4 5 4 5 4 3 0 2 3 4 7 4 4 4 5 4 3 1 2 1 2 3 4 4 2 1 4 2 2 2 5 5 3 5 5 4 6 1
16 13 12 10 6 5 3 6 6 5 3 2 2 6 3 3 5 6 5 6 3 3 1 2 2 4 3 3 2 3 3 5 5 4 1 2 3 4 3 4 5 2 4
14 12 11 12 7 7 7 5 7 6 6 4 1 3 4 3 3 4 6 5 4 1 1 1 2 4 3 3 2 2 3 2 2 4 2 3 2 3 2 2 1 3 4
Wind_Direction
127 129 126 124 122 113 107 102 99 101 105 101 94 89 91 95 94 89 88 91 91 90 92 91 92 93 94 98 101 99 102 103 98 92 92 86 90 88 92 88 87 82 83
130 132 130 125 120 116 111 106 102 99 94 95 103 100 95 93 95 95 92 92 91 92 92 94 95 96 99 101 98 102 104 106 102 94 86 93 92 88 89 91 90 83 82
127 134 125 118 117 114 114 111 105 100 97 95 91 95 96 94 94 93 94 93 95 92 97 98 99 99 106 103 99 98 102 112 100 100 97 94 89 94 88 87 91 89 84
133 126 128 124 119 119 117 111 109 103 101 101 99 100 97 94 95 93 98 92 92 91 97 101 98 99 99 97 97 90 112 137 159 89 95 85 92 94 91 97 94 85 91
129 126 134 125 123 123 117 113 108 111 106 110 112 106 108 105 102 97 96 97 94 95 94 96 97 96 97 92 82 93 99 95 98 101 90 77 72 95 92 93 85 83 93
119 124 130 127 126 115 117 111 116 111 107 105 110 111 110 110 101 102 100 99 95 97 104 98 96 93 88 80 79 72 128 129 98 95 87 84 77 93 84 88 87 87 90
118 128 133 130 124 119 117 112 112 116 113 114 114 113 118 112 114 108 103 100 99 104 109 112 101 88 81 57 54 44 111 107 101 97 93 90 91 96 90 78 94 82 73
131 129 129 128 126 124 123 119 120 118 115 111 113 114 114 113 110 112 107 105 106 114 117 118 113 110 103 113 94 67 86 108 99 97 93 87 95 94 91 86 78 91 87
132 126 131 119 125 126 120 123 123 123 121 121 118 119 115 116 119 112 111 109 109 116 119 119 130 142 155 174 29 53 65 115 112 113 105 95 99 102 101 98 92 79 93
135 138 135 132 124 120 120 126 130 129 129 128 126 126 126 122 119 118 113 115 120 121 123 129 140 154 178 196 163 104 82 108 105 101 107 121 118 103 103 91 90 85 72
138 137 138 146 139 133 126 137 134 132 140 140 134 135 132 130 123 110 128 122 118 119 121 122 121 124 278 282 277 128 74 122 109 107 116 120 104 108 102 105 95 93 80
146 146 137 137 141 147 139 144 149 150 159 146 143 160 154 135 136 130 141 129 130 124 132 153 183 215 254 262 256 226 110 123 115 117 109 131 131 127 111 112 112 108 94
129 113 129 137 139 81 109 150 158 163 182 188 165 148 174 121 117 130 133 98 137 138 172 220 223 295 270 274 281 107 145 132 132 137 143 144 149 149 137 140 147 136 114
117 126 124 118 103 85 71 83 284 185 176 175 170 158 141 153 135 154 167 173 180 167 150 104 139 231 254 249 214 103 140 110 137 134 157 160 159 156 168 168 176 191 205
133 134 124 104 101 345 33 347 19 324 117 176 159 171 138 146 156 166 197 165 144 137 135 61 37 309 349 47 62 84 112 122 147 139 165 172 181 186 185 189 203 219 236
143 134 140 135 169 160 168 257 220 67 359 226 133 180 147 157 149 151 99 151 153 155 112 177 104 344 354 69 85 101 116 151 160 152 170 185 194 202 207 207 213 225 239
146 149 146 138 149 165 174 189 165 113 34 322 135 83 141 130 114 111 99 128 142 176 133 121 256 328 323 10 145 143 144 143 147 171 173 184 202 212 220 226 226 229 237
136 138 146 142 159 157 157 160 189 160 147 282 91 117 106 122 116 79 82 160 140 77 65 17 45 19 261 220 177 197 162 179 187 159 181 177 184 202 226 230 231 234 243
136 147 140 140 147 136 151 167 183 185 201 247 104 122 120 128 85 77 109 89 85 101 150 152 78 166 352 189 182 198 187 179 209 200 188 186 185 193 208 229 229 235 244
140 142 140 142 145 149 140 149 174 172 172 125 120 134 143 135 101 101 107 82 84 116 263 106 52 325 237 241 296 220 204 198 219 214 201 189 187 187 207 216 209 233 243
141 136 128 130 140 132 139 146 156 167 140 199 136 180 148 157 144 152 133 172 103 145 164 26 25 360 329 190 50 354 318 329 177 217 175 235 224 182 200 206 213 213 238
145 136 126 131 141 172 113 174 127 92 125 156 174 172 150 157 172 185 174 191 168 204 151 44 39 353 342 292 111 90 18 335 328 272 158 171 223 185 198 225 199 209 220
148 144 138 152 163 155 130 102 69 62 34 66 98 134 167 157 188 160 161 173 150 196 174 230 74 60 348 326 3 146 79 213 339 318 349 324 261 81 187 231 198 235 224
159 150 139 158 179 148 148 125 134 137 141 1 160 165 169 165 171 141 131 110 112 89 43 304 15 85 75 13 339 325 120 147 139 2 8 288 315 243 187 212 210 240 133
159 160 146 160 169 160 165 148 133 133 117 133 30 151 156 164 171 168 136 122 119 105 163 2 39 68 64 63 3 342 357 68 53 83 329 319 274 265 270 161 196 234 147
158 154 153 157 174 176 155 147 134 160 156 107 183 168 158 188 211 179 152 150 143 73 249 278 79 64 53 54 52 30 65 82 288 86 305 326 260 304 258 245 112 109 152